,,Stat6,,Stat2,,Stat8,,Stat9,,Stat10,,Wind1,,Wind1,
time,status,PA1M_AVG,status,PR1M_SUM,status,RH1M_AVG,status,SR1M_AVG,status,TA1M_AVG,status,W1dAve1m,status,W1sAve1m,
2008-03-15, 00:00:00,VALID,917.583,VALID,0,VALID,100,VALID,-0.0339617,VALID,20.0175,VALID,12,VALID,0,
2008-03-15, 00:01:00,VALID,917.575,VALID,0,VALID,100,VALID,-0.0339617,VALID,19.9878,VALID,12,VALID,0,
2008-03-15, 00:02:00,VALID,917.563,VALID,0,VALID,100,VALID,0,VALID,19.9846,VALID,12,VALID,0,
2008-03-15, 00:03:00,VALID,917.545,VALID,0,VALID,100,VALID,-0.0339617,VALID,19.9978,VALID,12,VALID,0,
2008-03-15, 00:04:00,VALID,917.546,VALID,0,VALID,100,VALID,-0.0169808,VALID,19.9911,VALID,12,VALID,0,
2008-03-15, 00:05:00,VALID,917.536,VALID,0,VALID,100,VALID,-0.0169808,VALID,19.9816,VALID,15,VALID,0,
2008-03-15, 00:06:00,VALID,917.518,VALID,0,VALID,100,VALID,0,VALID,19.9911,VALID,26,VALID,0,
2008-03-15, 00:07:00,VALID,917.517,VALID,0,VALID,100,VALID,0,VALID,20.0173,VALID,27,VALID,0,
2008-03-15, 00:08:00,VALID,917.51,VALID,0,VALID,100,VALID,-0.0339617,VALID,20.0567,VALID,31,VALID,0.00527344,
2008-03-15, 00:09:00,VALID,917.505,VALID,0,VALID,100,VALID,-0.0679233,VALID,20.066,VALID,31,VALID,0.00167411,
2008-03-15, 00:10:00,VALID,917.499,VALID,0,VALID,100,VALID,0,VALID,20.0754,VALID,31,VALID,0,
2008-03-15, 00:11:00,VALID,917.488,VALID,0,VALID,100,VALID,0,VALID,20.0522,VALID,31,VALID,0,
2008-03-15, 00:12:00,VALID,917.49,VALID,0,VALID,100,VALID,-0.0339617,VALID,20.0365,VALID,31,VALID,0,
2008-03-15, 00:13:00,VALID,917.48,VALID,0,VALID,100,VALID,-0.0169808,VALID,20.0397,VALID,31,VALID,0,
2008-03-15, 00:14:00,VALID,917.467,VALID,0,VALID,100,VALID,-0.0169808,VALID,20.0138,VALID,31,VALID,0,
2008-03-15, 00:15:00,VALID,917.465,VALID,0,VALID,100,VALID,-0.0509425,VALID,19.9876,VALID,31,VALID,0,
2008-03-15, 00:16:00,VALID,917.446,VALID,0,VALID,100,VALID,0,VALID,19.9943,VALID,31,VALID,0,
2008-03-15, 00:17:00,VALID,917.43,VALID,0,VALID,100,VALID,-0.0169808,VALID,20.0073,VALID,29,VALID,0,
2008-03-15, 00:18:00,VALID,917.411,VALID,0,VALID,100,VALID,-0.0169808,VALID,20.0205,VALID,27,VALID,0,
2008-03-15, 00:19:00,VALID,917.401,VALID,0,VALID,100,VALID,-0.0169808,VALID,20.0205,VALID,26,VALID,0,
2008-03-15, 00:20:00,VALID,917.397,VALID,0,VALID,100,VALID,0,VALID,20.0073,VALID,24,VALID,0.0558764,
2008-03-15, 00:21:00,VALID,917.37,VALID,0,VALID,100,VALID,0,VALID,19.9973,VALID,25,VALID,0,
2008-03-15, 00:22:00,VALID,917.36,VALID,0,VALID,100,VALID,0,VALID,20.0108,VALID,26,VALID,0,
2008-03-15, 00:23:00,VALID,917.352,VALID,0,VALID,100,VALID,0,VALID,20.0108,VALID,32,VALID,0.153409,
2008-03-15, 00:24:00,VALID,917.323,VALID,0,VALID,100,VALID,-0.0169808,VALID,20.014,VALID,26,VALID,0.00117188,
2008-03-15, 00:25:00,VALID,917.304,VALID,0,VALID,100,VALID,-0.0509425,VALID,20.0108,VALID,31,VALID,0,
2008-03-15, 00:26:00,VALID,917.284,VALID,0,VALID,100,VALID,-0.0679233,VALID,19.9978,VALID,27,VALID,0,
2008-03-15, 00:27:00,VALID,917.244,VALID,0,VALID,100,VALID,0,VALID,19.9978,VALID,18,VALID,0,
2008-03-15, 00:28:00,VALID,917.225,VALID,0,VALID,100,VALID,-0.0169808,VALID,19.9978,VALID,18,VALID,0,
2008-03-15, 00:29:00,VALID,917.193,VALID,0,VALID,100,VALID,-0.0169808,VALID,19.9878,VALID,19,VALID,0,
2008-03-15, 00:30:00,VALID,917.168,VALID,0,VALID,100,VALID,-0.0339617,VALID,19.9751,VALID,20,VALID,0,
2008-03-15, 00:31:00,VALID,917.151,VALID,0,VALID,100,VALID,0.0169808,VALID,19.9679,VALID,20,VALID,0,
2008-03-15, 00:32:00,VALID,917.127,VALID,0,VALID,100,VALID,-0.0169808,VALID,19.9621,VALID,23,VALID,0,
2008-03-15, 00:33:00,VALID,917.092,VALID,0,VALID,100,VALID,-0.0169808,VALID,19.9584,VALID,36,VALID,0,
2008-03-15, 00:34:00,VALID,917.079,VALID,0,VALID,100,VALID,-0.0169808,VALID,19.9848,VALID,31,VALID,0,
2008-03-15, 00:35:00,VALID,917.074,VALID,0,VALID,100,VALID,-0.0169808,VALID,19.9813,VALID,32,VALID,0,
2008-03-15, 00:36:00,VALID,917.074,VALID,0,VALID,100,VALID,0,VALID,19.9811,VALID,21,VALID,0,
2008-03-15, 00:37:00,VALID,917.06,VALID,0,VALID,100,VALID,0,VALID,19.9551,VALID,18,VALID,0.94215,
2008-03-15, 00:38:00,VALID,917.052,VALID,0,VALID,100,VALID,-0.0169808,VALID,19.9392,VALID,23,VALID,1.5366,
2008-03-15, 00:39:00,VALID,917.04,VALID,0,VALID,100,VALID,0,VALID,19.9197,VALID,13,VALID,1.05655,
2008-03-15, 00:40:00,VALID,917.039,VALID,0,VALID,100,VALID,-0.0339617,VALID,19.9167,VALID,9,VALID,0.680753,
2008-03-15, 00:41:00,VALID,917.01,VALID,0,VALID,100,VALID,0,VALID,19.8875,VALID,22,VALID,1.01797,
2008-03-15, 00:42:00,VALID,916.99,VALID,0,VALID,100,VALID,-0.0169808,VALID,19.8648,VALID,29,VALID,0.971354,
2008-03-15, 00:43:00,VALID,916.962,VALID,0,VALID,100,VALID,0.0169808,VALID,19.8645,VALID,18,VALID,0.322443,
2008-03-15, 00:44:00,VALID,916.943,VALID,0,VALID,100,VALID,0,VALID,19.8805,VALID,19,VALID,0.00558036,
2008-03-15, 00:45:00,VALID,916.923,VALID,0,VALID,100,VALID,-0.0169808,VALID,19.8872,VALID,31,VALID,0,
2008-03-15, 00:46:00,VALID,916.908,VALID,0,VALID,100,VALID,-0.0169808,VALID,19.8643,VALID,356,VALID,0.505335,
2008-03-15, 00:47:00,VALID,916.911,VALID,0,VALID,100,VALID,-0.0169808,VALID,19.8713,VALID,8,VALID,0.160065,
2008-03-15, 00:48:00,VALID,916.905,VALID,0,VALID,100,VALID,0,VALID,19.8613,VALID,10,VALID,1.11109,
2008-03-15, 00:49:00,VALID,916.891,VALID,0,VALID,100,VALID,0,VALID,19.8353,VALID,17,VALID,1.14149,
2008-03-15, 00:50:00,VALID,916.878,VALID,0,VALID,100,VALID,-0.0169808,VALID,19.8353,VALID,25,VALID,0.539608,
2008-03-15, 00:51:00,VALID,916.868,VALID,0,VALID,100,VALID,0,VALID,19.8146,VALID,13,VALID,1.16933,
2008-03-15, 00:52:00,VALID,916.861,VALID,0,VALID,100,VALID,0.0339617,VALID,19.8081,VALID,348,VALID,0.541606,
2008-03-15, 00:53:00,VALID,916.844,VALID,0,VALID,100,VALID,0,VALID,19.7954,VALID,351,VALID,0.557355,
2008-03-15, 00:54:00,VALID,916.826,VALID,0,VALID,100,VALID,0.0339617,VALID,19.7854,VALID,337,VALID,0.772294,
2008-03-15, 00:55:00,VALID,916.802,VALID,0,VALID,100,VALID,0.0169808,VALID,19.7824,VALID,340,VALID,0.462358,
2008-03-15, 00:56:00,VALID,916.786,VALID,0,VALID,100,VALID,0,VALID,19.7832,VALID,338,VALID,0,
2008-03-15, 00:57:00,VALID,916.772,VALID,0,VALID,100,VALID,-0.0339617,VALID,19.7737,VALID,340,VALID,0,
2008-03-15, 00:58:00,VALID,916.768,VALID,0,VALID,100,VALID,-0.0339617,VALID,19.7802,VALID,340,VALID,0,
2008-03-15, 00:59:00,VALID,916.758,VALID,0,VALID,100,VALID,-0.0339617,VALID,19.7894,VALID,340,VALID,0,
2008-03-15, 01:00:00,VALID,916.749,VALID,0,VALID,100,VALID,0,VALID,19.7926,VALID,343,VALID,0,
2008-03-15, 01:01:00,VALID,916.748,VALID,0,VALID,100,VALID,0,VALID,19.8064,VALID,348,VALID,0,
2008-03-15, 01:02:00,VALID,916.741,VALID,0,VALID,100,VALID,0,VALID,19.8124,VALID,352,VALID,0,
2008-03-15, 01:03:00,VALID,916.752,VALID,0,VALID,100,VALID,0,VALID,19.8184,VALID,352,VALID,0,
2008-03-15, 01:04:00,VALID,916.748,VALID,0,VALID,100,VALID,-0.0169808,VALID,19.8021,VALID,352,VALID,0,
2008-03-15, 01:05:00,VALID,916.75,VALID,0,VALID,100,VALID,-0.0169808,VALID,19.8021,VALID,352,VALID,0,
2008-03-15, 01:06:00,VALID,916.747,VALID,0,VALID,100,VALID,0,VALID,19.8124,VALID,352,VALID,0,
2008-03-15, 01:07:00,VALID,916.736,VALID,0,VALID,100,VALID,0,VALID,19.8059,VALID,352,VALID,0,
2008-03-15, 01:08:00,VALID,916.742,VALID,0,VALID,100,VALID,-0.0339617,VALID,19.7961,VALID,352,VALID,0,
2008-03-15, 01:09:00,VALID,916.73,VALID,0,VALID,100,VALID,0.0169808,VALID,19.7929,VALID,352,VALID,0,
2008-03-15, 01:10:00,VALID,916.705,VALID,0,VALID,100,VALID,-0.0169808,VALID,19.7894,VALID,352,VALID,0,
2008-03-15, 01:11:00,VALID,916.684,VALID,0,VALID,100,VALID,0,VALID,19.8091,VALID,352,VALID,0,
2008-03-15, 01:12:00,VALID,916.675,VALID,0,VALID,100,VALID,0,VALID,19.8383,VALID,352,VALID,0,
2008-03-15, 01:13:00,VALID,916.661,VALID,0,VALID,100,VALID,0,VALID,19.8843,VALID,352,VALID,0,
2008-03-15, 01:14:00,VALID,916.654,VALID,0,VALID,100,VALID,0,VALID,19.8935,VALID,352,VALID,0,
2008-03-15, 01:15:00,VALID,916.639,VALID,0,VALID,100,VALID,0,VALID,19.9035,VALID,352,VALID,0,
2008-03-15, 01:16:00,VALID,916.639,VALID,0,VALID,100,VALID,0,VALID,19.9199,VALID,352,VALID,0,
2008-03-15, 01:17:00,VALID,916.632,VALID,0,VALID,100,VALID,-0.0169808,VALID,19.9227,VALID,352,VALID,0,
2008-03-15, 01:18:00,VALID,916.62,VALID,0,VALID,100,VALID,0,VALID,19.9324,VALID,352,VALID,0,
2008-03-15, 01:19:00,VALID,916.607,VALID,0,VALID,100,VALID,0.0169808,VALID,19.9292,VALID,352,VALID,0,
2008-03-15, 01:20:00,VALID,916.594,VALID,0,VALID,100,VALID,0,VALID,19.9324,VALID,352,VALID,0,
2008-03-15, 01:21:00,VALID,916.57,VALID,0,VALID,100,VALID,-0.0169808,VALID,19.9419,VALID,352,VALID,0,
2008-03-15, 01:22:00,VALID,916.555,VALID,0,VALID,100,VALID,0,VALID,19.9259,VALID,352,VALID,0,
2008-03-15, 01:23:00,VALID,916.531,VALID,0,VALID,100,VALID,-0.0169808,VALID,19.893,VALID,352,VALID,0,
2008-03-15, 01:24:00,VALID,916.526,VALID,0,VALID,100,VALID,0.0169808,VALID,19.8932,VALID,273,VALID,0,
2008-03-15, 01:25:00,VALID,916.536,VALID,0,VALID,100,VALID,0,VALID,19.8797,VALID,237,VALID,0,
2008-03-15, 01:26:00,VALID,916.528,VALID,0,VALID,100,VALID,0,VALID,19.8775,VALID,237,VALID,0,
2008-03-15, 01:27:00,VALID,916.534,VALID,0,VALID,100,VALID,0,VALID,19.8578,VALID,237,VALID,0,
2008-03-15, 01:28:00,VALID,916.54,VALID,0,VALID,100,VALID,0.101885,VALID,19.8436,VALID,237,VALID,0,
2008-03-15, 01:29:00,VALID,916.526,VALID,0,VALID,100,VALID,0.0849042,VALID,19.8465,VALID,237,VALID,0,
2008-03-15, 01:30:00,VALID,916.513,VALID,0,VALID,100,VALID,0.0679233,VALID,19.8398,VALID,237,VALID,0,
2008-03-15, 01:31:00,VALID,916.504,VALID,0,VALID,100,VALID,0.101885,VALID,19.85,VALID,237,VALID,0,
2008-03-15, 01:32:00,VALID,916.481,VALID,0,VALID,100,VALID,0.101885,VALID,19.8306,VALID,237,VALID,0,
2008-03-15, 01:33:00,VALID,916.474,VALID,0,VALID,100,VALID,0.0849042,VALID,19.8308,VALID,237,VALID,0,
2008-03-15, 01:34:00,VALID,916.464,VALID,0,VALID,100,VALID,0.101885,VALID,19.8298,VALID,237,VALID,0,
2008-03-15, 01:35:00,VALID,916.438,VALID,0,VALID,100,VALID,0.0679233,VALID,19.8268,VALID,237,VALID,0,
2008-03-15, 01:36:00,VALID,916.418,VALID,0,VALID,100,VALID,0.0849042,VALID,19.8273,VALID,237,VALID,0,
2008-03-15, 01:37:00,VALID,916.416,VALID,0,VALID,100,VALID,0.101885,VALID,19.8074,VALID,246,VALID,0,
2008-03-15, 01:38:00,VALID,916.411,VALID,0,VALID,100,VALID,0.101885,VALID,19.7752,VALID,250,VALID,0,
2008-03-15, 01:39:00,VALID,916.406,VALID,0,VALID,100,VALID,0.101885,VALID,19.7592,VALID,250,VALID,0,
2008-03-15, 01:40:00,VALID,916.409,VALID,0,VALID,100,VALID,0.101885,VALID,19.7557,VALID,249,VALID,0,
2008-03-15, 01:41:00,VALID,916.389,VALID,0,VALID,100,VALID,0.0849042,VALID,19.7522,VALID,229,VALID,0,
2008-03-15, 01:42:00,VALID,916.381,VALID,0,VALID,100,VALID,0.101885,VALID,19.7657,VALID,228,VALID,0,
2008-03-15, 01:43:00,VALID,916.38,VALID,0,VALID,100,VALID,-0.0339617,VALID,19.7699,VALID,228,VALID,0,
2008-03-15, 01:44:00,VALID,916.375,VALID,0,VALID,100,VALID,-0.0679233,VALID,19.7769,VALID,228,VALID,0,
2008-03-15, 01:45:00,VALID,916.367,VALID,0,VALID,100,VALID,-0.0339617,VALID,19.7834,VALID,228,VALID,0,
2008-03-15, 01:46:00,VALID,916.35,VALID,0,VALID,100,VALID,-0.0679233,VALID,19.7869,VALID,228,VALID,0,
2008-03-15, 01:47:00,VALID,916.338,VALID,0,VALID,100,VALID,-0.0509425,VALID,19.8094,VALID,228,VALID,0,
2008-03-15, 01:48:00,VALID,916.331,VALID,0,VALID,100,VALID,-0.0169808,VALID,19.8121,VALID,228,VALID,0,
2008-03-15, 01:49:00,VALID,916.318,VALID,0,VALID,100,VALID,-0.0339617,VALID,19.8321,VALID,228,VALID,0,
2008-03-15, 01:50:00,VALID,916.285,VALID,0,VALID,100,VALID,-0.0339617,VALID,19.8321,VALID,228,VALID,0,
2008-03-15, 01:51:00,VALID,916.264,VALID,0,VALID,100,VALID,-0.0169808,VALID,19.8518,VALID,228,VALID,0,
2008-03-15, 01:52:00,VALID,916.236,VALID,0,VALID,100,VALID,-0.0339617,VALID,19.8608,VALID,228,VALID,0,
2008-03-15, 01:53:00,VALID,916.206,VALID,0,VALID,100,VALID,-0.0169808,VALID,19.8738,VALID,228,VALID,0,
2008-03-15, 01:54:00,VALID,916.185,VALID,0,VALID,100,VALID,-0.0339617,VALID,19.871,VALID,228,VALID,0,
2008-03-15, 01:55:00,VALID,916.166,VALID,0,VALID,100,VALID,-0.0679233,VALID,19.8645,VALID,228,VALID,0,
2008-03-15, 01:56:00,VALID,916.15,VALID,0,VALID,100,VALID,-0.0509425,VALID,19.8575,VALID,228,VALID,0,
2008-03-15, 01:57:00,VALID,916.148,VALID,0,VALID,100,VALID,-0.0339617,VALID,19.8518,VALID,228,VALID,0,
2008-03-15, 01:58:00,VALID,916.145,VALID,0,VALID,100,VALID,-0.0339617,VALID,19.8121,VALID,228,VALID,0,
2008-03-15, 01:59:00,VALID,916.147,VALID,0,VALID,100,VALID,-0.0509425,VALID,19.8126,VALID,228,VALID,0,
2008-03-15, 02:00:00,VALID,916.153,VALID,0,VALID,100,VALID,-0.0169808,VALID,19.8081,VALID,228,VALID,0,
2008-03-15, 02:01:00,VALID,916.157,VALID,0,VALID,100,VALID,-0.0339617,VALID,19.8161,VALID,228,VALID,0,
2008-03-15, 02:02:00,VALID,916.151,VALID,0,VALID,100,VALID,-0.0339617,VALID,19.8286,VALID,219,VALID,0,
2008-03-15, 02:03:00,VALID,916.143,VALID,0,VALID,100,VALID,-0.0509425,VALID,19.8318,VALID,194,VALID,0,
2008-03-15, 02:04:00,VALID,916.125,VALID,0,VALID,100,VALID,-0.0169808,VALID,19.8388,VALID,194,VALID,0,
2008-03-15, 02:05:00,VALID,916.116,VALID,0,VALID,100,VALID,0,VALID,19.8253,VALID,194,VALID,0,
2008-03-15, 02:06:00,VALID,916.092,VALID,0,VALID,100,VALID,-0.0169808,VALID,19.8154,VALID,194,VALID,0,
2008-03-15, 02:07:00,VALID,916.066,VALID,0,VALID,100,VALID,-0.0169808,VALID,19.8029,VALID,194,VALID,0,
2008-03-15, 02:08:00,VALID,916.064,VALID,0,VALID,100,VALID,-0.0339617,VALID,19.7797,VALID,194,VALID,0,
2008-03-15, 02:09:00,VALID,916.056,VALID,0,VALID,100,VALID,0,VALID,19.7694,VALID,194,VALID,0,
2008-03-15, 02:10:00,VALID,916.046,VALID,0,VALID,100,VALID,-0.0169808,VALID,19.7827,VALID,194,VALID,0,
2008-03-15, 02:11:00,VALID,916.034,VALID,0,VALID,100,VALID,-0.0339617,VALID,19.8056,VALID,194,VALID,0,
2008-03-15, 02:12:00,VALID,916.03,VALID,0,VALID,100,VALID,-0.0169808,VALID,19.8381,VALID,194,VALID,0,
2008-03-15, 02:13:00,VALID,916.024,VALID,0,VALID,100,VALID,0,VALID,19.884,VALID,164,VALID,0.10245,
2008-03-15, 02:14:00,VALID,916.021,VALID,0,VALID,100,VALID,-0.0339617,VALID,19.8902,VALID,45,VALID,0.021439,
2008-03-15, 02:15:00,VALID,916.018,VALID,0,VALID,100,VALID,-0.0339617,VALID,19.8905,VALID,41,VALID,0,
2008-03-15, 02:16:00,VALID,916.008,VALID,0,VALID,100,VALID,-0.0169808,VALID,19.9,VALID,41,VALID,0,
2008-03-15, 02:17:00,VALID,915.991,VALID,0,VALID,100,VALID,-0.0169808,VALID,19.877,VALID,41,VALID,0,
2008-03-15, 02:18:00,VALID,915.971,VALID,0,VALID,100,VALID,-0.0679233,VALID,19.8411,VALID,340,VALID,0.0368056,
2008-03-15, 02:19:00,VALID,915.942,VALID,0,VALID,100,VALID,-0.0169808,VALID,19.8156,VALID,243,VALID,0,
2008-03-15, 02:20:00,VALID,915.921,VALID,0,VALID,100,VALID,0,VALID,19.7892,VALID,247,VALID,0.0425781,
2008-03-15, 02:21:00,VALID,915.902,VALID,0,VALID,100,VALID,-0.0169808,VALID,19.7964,VALID,248,VALID,0,
2008-03-15, 02:22:00,VALID,915.895,VALID,0,VALID,100,VALID,0,VALID,19.7824,VALID,248,VALID,0,
2008-03-15, 02:23:00,VALID,915.9,VALID,0,VALID,100,VALID,-0.0169808,VALID,19.7862,VALID,248,VALID,0,
2008-03-15, 02:24:00,VALID,915.878,VALID,0,VALID,100,VALID,0,VALID,19.7926,VALID,248,VALID,0,
2008-03-15, 02:25:00,VALID,915.881,VALID,0,VALID,100,VALID,0,VALID,19.7926,VALID,248,VALID,0,
2008-03-15, 02:26:00,VALID,915.895,VALID,0.2,VALID,100,VALID,-0.0169808,VALID,19.8126,VALID,248,VALID,0,
2008-03-15, 02:27:00,VALID,915.878,VALID,0,VALID,100,VALID,-0.0509425,VALID,19.8091,VALID,248,VALID,0,
2008-03-15, 02:28:00,VALID,915.884,VALID,0,VALID,100,VALID,0.0679233,VALID,19.8106,VALID,248,VALID,0,
2008-03-15, 02:29:00,VALID,915.886,VALID,0,VALID,100,VALID,0.101885,VALID,19.7944,VALID,248,VALID,0,
2008-03-15, 02:30:00,VALID,915.88,VALID,0,VALID,100,VALID,0.101885,VALID,19.7712,VALID,277,VALID,0,
2008-03-15, 02:31:00,VALID,915.889,VALID,0,VALID,100,VALID,0.0849042,VALID,19.7844,VALID,9,VALID,0,
2008-03-15, 02:32:00,VALID,915.893,VALID,0,VALID,100,VALID,0.0849042,VALID,19.7882,VALID,22,VALID,0,
2008-03-15, 02:33:00,VALID,915.897,VALID,0,VALID,100,VALID,0.0679233,VALID,19.7749,VALID,24,VALID,0,
2008-03-15, 02:34:00,VALID,915.906,VALID,0,VALID,100,VALID,0.0679233,VALID,19.7395,VALID,23,VALID,0,
2008-03-15, 02:35:00,VALID,915.897,VALID,0,VALID,100,VALID,0.101885,VALID,19.72,VALID,23,VALID,0,
2008-03-15, 02:36:00,VALID,915.9,VALID,0,VALID,100,VALID,0.0849042,VALID,19.733,VALID,23,VALID,0,
2008-03-15, 02:37:00,VALID,915.891,VALID,0,VALID,100,VALID,0.0679233,VALID,19.7692,VALID,23,VALID,0,
2008-03-15, 02:38:00,VALID,915.884,VALID,0,VALID,100,VALID,0.101885,VALID,19.756,VALID,7,VALID,0,
2008-03-15, 02:39:00,VALID,915.867,VALID,0,VALID,100,VALID,0.0849042,VALID,19.7298,VALID,25,VALID,0.238186,
2008-03-15, 02:40:00,VALID,915.86,VALID,0,VALID,100,VALID,0.101885,VALID,19.749,VALID,28,VALID,0.157465,
2008-03-15, 02:41:00,VALID,915.848,VALID,0,VALID,100,VALID,0.0679233,VALID,19.7525,VALID,31,VALID,0,
2008-03-15, 02:42:00,VALID,915.854,VALID,0,VALID,100,VALID,0.0849042,VALID,19.7689,VALID,31,VALID,0.119186,
2008-03-15, 02:43:00,VALID,915.864,VALID,0,VALID,100,VALID,-0.0679233,VALID,19.7802,VALID,31,VALID,0,
2008-03-15, 02:44:00,VALID,915.856,VALID,0,VALID,100,VALID,-0.0339617,VALID,19.7897,VALID,32,VALID,0,
2008-03-15, 02:45:00,VALID,915.874,VALID,0,VALID,100,VALID,-0.0339617,VALID,19.7964,VALID,36,VALID,0,
2008-03-15, 02:46:00,VALID,915.866,VALID,0,VALID,100,VALID,0,VALID,19.7734,VALID,36,VALID,0,
2008-03-15, 02:47:00,VALID,915.856,VALID,0,VALID,100,VALID,-0.0169808,VALID,19.7575,VALID,36,VALID,0,
2008-03-15, 02:48:00,VALID,915.837,VALID,0,VALID,100,VALID,-0.0679233,VALID,19.7382,VALID,36,VALID,0,
2008-03-15, 02:49:00,VALID,915.822,VALID,0,VALID,100,VALID,-0.0679233,VALID,19.7155,VALID,36,VALID,0,
2008-03-15, 02:50:00,VALID,915.812,VALID,0,VALID,100,VALID,-0.0679233,VALID,19.7118,VALID,31,VALID,0,
2008-03-15, 02:51:00,VALID,915.813,VALID,0,VALID,100,VALID,-0.0339617,VALID,19.7118,VALID,21,VALID,0,
2008-03-15, 02:52:00,VALID,915.819,VALID,0,VALID,100,VALID,-0.0339617,VALID,19.6763,VALID,20,VALID,0,
2008-03-15, 02:53:00,VALID,915.828,VALID,0,VALID,100,VALID,-0.0679233,VALID,19.6896,VALID,19,VALID,0,
2008-03-15, 02:54:00,VALID,915.836,VALID,0,VALID,100,VALID,-0.0339617,VALID,19.6891,VALID,19,VALID,0,
2008-03-15, 02:55:00,VALID,915.842,VALID,0,VALID,100,VALID,-0.0509425,VALID,19.6896,VALID,19,VALID,0,
2008-03-15, 02:56:00,VALID,915.858,VALID,0,VALID,100,VALID,-0.0509425,VALID,19.6961,VALID,19,VALID,0,
2008-03-15, 02:57:00,VALID,915.858,VALID,0,VALID,100,VALID,-0.0679233,VALID,19.7155,VALID,19,VALID,0,
2008-03-15, 02:58:00,VALID,915.873,VALID,0,VALID,100,VALID,0.0679233,VALID,19.72,VALID,19,VALID,0,
2008-03-15, 02:59:00,VALID,915.876,VALID,0,VALID,100,VALID,0.0339617,VALID,19.7365,VALID,19,VALID,0,
2008-03-15, 03:00:00,VALID,915.871,VALID,0,VALID,100,VALID,0.0509425,VALID,19.74,VALID,19,VALID,0,
2008-03-15, 03:01:00,VALID,915.874,VALID,0,VALID,100,VALID,0.0509425,VALID,19.7295,VALID,19,VALID,0,
2008-03-15, 03:02:00,VALID,915.871,VALID,0,VALID,100,VALID,0.101885,VALID,19.7198,VALID,19,VALID,0,
2008-03-15, 03:03:00,VALID,915.867,VALID,0,VALID,100,VALID,0.0679233,VALID,19.727,VALID,302,VALID,0,
2008-03-15, 03:04:00,VALID,915.855,VALID,0,VALID,100,VALID,0.0339617,VALID,19.7173,VALID,261,VALID,0,
2008-03-15, 03:05:00,VALID,915.85,VALID,0,VALID,100,VALID,0.0339617,VALID,19.7332,VALID,261,VALID,0,
2008-03-15, 03:06:00,VALID,915.864,VALID,0,VALID,100,VALID,0.0509425,VALID,19.7432,VALID,261,VALID,0,
2008-03-15, 03:07:00,VALID,915.844,VALID,0,VALID,100,VALID,0.0849042,VALID,19.7462,VALID,261,VALID,0,
2008-03-15, 03:08:00,VALID,915.842,VALID,0,VALID,100,VALID,0.0849042,VALID,19.7165,VALID,261,VALID,0,
2008-03-15, 03:09:00,VALID,915.834,VALID,0,VALID,100,VALID,0.0509425,VALID,19.707,VALID,261,VALID,0,
2008-03-15, 03:10:00,VALID,915.83,VALID,0,VALID,100,VALID,0.0339617,VALID,19.6946,VALID,261,VALID,0,
2008-03-15, 03:11:00,VALID,915.807,VALID,0,VALID,100,VALID,0.0679233,VALID,19.6486,VALID,261,VALID,0,
2008-03-15, 03:12:00,VALID,915.796,VALID,0,VALID,100,VALID,0.0169808,VALID,19.6359,VALID,261,VALID,0,
2008-03-15, 03:13:00,VALID,915.792,VALID,0,VALID,100,VALID,-0.0509425,VALID,19.6269,VALID,261,VALID,0,
2008-03-15, 03:14:00,VALID,915.793,VALID,0,VALID,100,VALID,-0.0509425,VALID,19.6237,VALID,261,VALID,0,
2008-03-15, 03:15:00,VALID,915.791,VALID,0,VALID,100,VALID,0,VALID,19.6272,VALID,261,VALID,0,
2008-03-15, 03:16:00,VALID,915.77,VALID,0,VALID,100,VALID,-0.0169808,VALID,19.6145,VALID,238,VALID,0,
2008-03-15, 03:17:00,VALID,915.772,VALID,0,VALID,100,VALID,-0.0169808,VALID,19.6209,VALID,237,VALID,0,
2008-03-15, 03:18:00,VALID,915.778,VALID,0,VALID,100,VALID,-0.0679233,VALID,19.6212,VALID,237,VALID,0,
2008-03-15, 03:19:00,VALID,915.75,VALID,0,VALID,100,VALID,-0.0679233,VALID,19.6182,VALID,237,VALID,0,
2008-03-15, 03:20:00,VALID,915.755,VALID,0,VALID,100,VALID,-0.0509425,VALID,19.6182,VALID,237,VALID,0,
2008-03-15, 03:21:00,VALID,915.742,VALID,0,VALID,100,VALID,-0.0679233,VALID,19.6147,VALID,237,VALID,0,
2008-03-15, 03:22:00,VALID,915.745,VALID,0,VALID,100,VALID,-0.0509425,VALID,19.605,VALID,237,VALID,0,
2008-03-15, 03:23:00,VALID,915.742,VALID,0,VALID,100,VALID,-0.118866,VALID,19.6342,VALID,237,VALID,0,
2008-03-15, 03:24:00,VALID,915.752,VALID,0,VALID,100,VALID,-0.101885,VALID,19.6636,VALID,312,VALID,0,
2008-03-15, 03:25:00,VALID,915.751,VALID,0,VALID,100,VALID,-0.101885,VALID,19.6733,VALID,11,VALID,0,
2008-03-15, 03:26:00,VALID,915.762,VALID,0,VALID,100,VALID,-0.0509425,VALID,19.6669,VALID,16,VALID,0,
2008-03-15, 03:27:00,VALID,915.77,VALID,0,VALID,100,VALID,-0.0679233,VALID,19.6531,VALID,16,VALID,0,
2008-03-15, 03:28:00,VALID,915.791,VALID,0,VALID,100,VALID,0.0169808,VALID,19.6556,VALID,16,VALID,0,
2008-03-15, 03:29:00,VALID,915.805,VALID,0,VALID,100,VALID,0.0849042,VALID,19.6651,VALID,16,VALID,0,
2008-03-15, 03:30:00,VALID,915.819,VALID,0,VALID,100,VALID,0.0339617,VALID,19.6813,VALID,16,VALID,0,
2008-03-15, 03:31:00,VALID,915.832,VALID,0,VALID,100,VALID,0.0679233,VALID,19.6878,VALID,16,VALID,0,
2008-03-15, 03:32:00,VALID,915.845,VALID,0,VALID,100,VALID,0.0679233,VALID,19.6684,VALID,16,VALID,0,
2008-03-15, 03:33:00,VALID,915.855,VALID,0,VALID,100,VALID,0.0509425,VALID,19.6357,VALID,16,VALID,0,
2008-03-15, 03:34:00,VALID,915.866,VALID,0,VALID,100,VALID,0.0679233,VALID,19.6262,VALID,16,VALID,0,
2008-03-15, 03:35:00,VALID,915.9,VALID,0,VALID,100,VALID,0.0679233,VALID,19.5935,VALID,16,VALID,0,
2008-03-15, 03:36:00,VALID,915.908,VALID,0,VALID,100,VALID,0.101885,VALID,19.5933,VALID,23,VALID,0,
2008-03-15, 03:37:00,VALID,915.942,VALID,0,VALID,100,VALID,0.101885,VALID,19.5962,VALID,38,VALID,0,
2008-03-15, 03:38:00,VALID,915.958,VALID,0,VALID,100,VALID,0.0849042,VALID,19.603,VALID,40,VALID,0,
2008-03-15, 03:39:00,VALID,915.971,VALID,0,VALID,100,VALID,0.0679233,VALID,19.59,VALID,40,VALID,0,
2008-03-15, 03:40:00,VALID,915.992,VALID,0,VALID,100,VALID,0.0509425,VALID,19.5805,VALID,40,VALID,0,
2008-03-15, 03:41:00,VALID,916.021,VALID,0,VALID,100,VALID,0.0679233,VALID,19.5645,VALID,40,VALID,0,
2008-03-15, 03:42:00,VALID,916.033,VALID,0,VALID,100,VALID,0.0679233,VALID,19.5673,VALID,40,VALID,0,
2008-03-15, 03:43:00,VALID,916.057,VALID,0,VALID,100,VALID,-0.0679233,VALID,19.592,VALID,40,VALID,0,
2008-03-15, 03:44:00,VALID,916.061,VALID,0,VALID,100,VALID,-0.101885,VALID,19.5987,VALID,40,VALID,0,
2008-03-15, 03:45:00,VALID,916.068,VALID,0,VALID,100,VALID,-0.0849042,VALID,19.5955,VALID,41,VALID,0,
2008-03-15, 03:46:00,VALID,916.072,VALID,0,VALID,100,VALID,-0.0509425,VALID,19.5922,VALID,41,VALID,0,
2008-03-15, 03:47:00,VALID,916.071,VALID,0,VALID,100,VALID,-0.0509425,VALID,19.582,VALID,48,VALID,0,
2008-03-15, 03:48:00,VALID,916.081,VALID,0,VALID,100,VALID,-0.0849042,VALID,19.5825,VALID,69,VALID,0,
2008-03-15, 03:49:00,VALID,916.09,VALID,0,VALID,100,VALID,-0.101885,VALID,19.5695,VALID,69,VALID,0,
2008-03-15, 03:50:00,VALID,916.084,VALID,0,VALID,100,VALID,-0.101885,VALID,19.576,VALID,69,VALID,0,
2008-03-15, 03:51:00,VALID,916.093,VALID,0,VALID,100,VALID,-0.0509425,VALID,19.592,VALID,69,VALID,0,
2008-03-15, 03:52:00,VALID,916.099,VALID,0,VALID,100,VALID,-0.101885,VALID,19.6117,VALID,69,VALID,0,